Temp
11 11 11 11 11 10 10 10 10 10 10 10 10 10 10 10 10 10 10 9 9 8 8 8 7 7 7 7 7 6 6 6 6 6 6 6 5 5 5 5 5 5
11 11 11 11 11 10 10 10 10 10 10 10 10 10 10 10 10 10 10 9 9 8 8 7 7 7 7 7 7 6 6 6 6 6 6 5 5 5 5 5 5 5
11 11 11 10 10 10 10 10 10 10 10 10 10 10 10 10 10 10 10 9 9 8 8 8 7 7 7 7 7 6 6 6 6 6 5 5 5 5 5 5 5 4
11 11 10 10 10 10 10 10 10 10 10 10 10 10 10 10 10 10 10 9 9 8 8 8 7 7 7 7 7 6 6 6 6 5 5 5 5 5 5 5 4 4
11 10 10 10 10 10 10 10 10 10 10 10 10 9 10 10 10 10 10 10 9 8 8 7 7 7 7 7 6 6 6 6 5 5 5 5 5 5 4 4 4 4
11 10 10 10 10 10 10 10 9 9 10 10 9 9 9 10 10 10 10 10 9 8 8 7 7 7 7 7 6 6 6 5 5 5 5 5 5 5 4 4 4 4
11 10 10 10 10 10 10 9 9 9 9 9 9 9 9 10 10 10 10 9 9 8 7 7 7 6 6 6 6 6 6 5 5 5 5 5 5 4 4 4 4 4
10 10 10 10 10 10 9 9 9 9 9 9 9 9 9 9 10 9 9 9 8 8 7 7 7 6 6 6 6 6 6 6 5 5 5 5 4 4 4 4 4 4
10 10 10 10 10 9 9 9 9 9 9 9 9 9 9 9 9 9 9 9 8 8 7 7 7 6 6 6 6 6 6 6 5 5 5 5 4 4 4 4 4 4
10 10 10 10 9 9 9 9 9 9 9 9 9 9 9 9 9 8 8 8 8 8 7 7 7 6 6 6 6 6 6 6 5 5 5 5 5 4 4 4 4 4
10 10 10 10 9 9 9 9 8 8 8 8 8 8 9 9 8 8 8 8 7 7 7 7 6 6 6 6 6 6 6 6 5 5 5 5 4 4 4 4 4 4
9 10 10 9 9 9 8 8 8 8 8 8 8 8 8 8 8 7 7 7 7 6 6 6 6 6 6 6 6 6 6 6 5 5 5 5 4 4 4 3 3 3
9 9 9 9 9 9 8 8 8 8 8 8 8 8 8 8 7 7 7 7 6 6 6 6 6 6 6 6 6 6 6 5 5 5 5 4 4 4 3 3 3 3
9 9 9 9 9 8 8 8 8 8 8 8 8 8 8 8 7 7 7 7 6 6 6 6 6 6 5 5 5 5 5 5 5 5 5 4 4 4 3 3 3 3
9 9 9 9 8 8 8 8 8 7 7 8 8 8 8 7 7 7 7 7 6 6 6 6 5 5 5 5 5 5 5 5 5 5 4 4 4 4 4 3 3 3
9 8 8 8 8 8 8 8 7 7 7 8 8 8 8 7 7 6 6 6 6 6 5 5 5 5 5 5 5 5 5 5 5 4 4 4 4 4 3 3 3 3
8 8 8 8 8 8 8 7 7 7 7 8 8 8 7 7 6 6 6 5 5 5 5 5 5 5 5 5 4 4 4 4 4 4 4 4 4 4 3 3 3 3
8 8 8 8 8 8 7 7 7 7 7 7 7 7 7 6 6 6 5 5 5 5 5 5 5 4 5 5 4 4 4 4 4 4 4 4 4 3 3 3 3 3
8 8 8 8 8 7 7 7 7 7 7 7 7 6 6 6 6 5 5 5 5 5 5 5 4 4 4 4 4 4 3 4 4 4 4 4 3 3 3 3 3 3
7 8 8 7 7 7 8 7 7 7 7 7 6 6 6 5 5 5 5 5 5 5 5 4 4 4 4 4 4 4 3 3 3 3 3 3 3 3 3 3 3 2
8 8 8 8 8 8 8 7 7 7 7 6 6 6 5 5 5 5 5 5 5 5 5 4 4 4 4 4 4 4 3 3 3 3 3 3 3 3 3 3 2 2
8 7 7 8 8 8 7 7 7 7 7 6 6 6 6 6 5 5 5 5 5 5 5 4 4 4 4 4 4 4 3 3 3 3 3 3 3 2 2 2 2 2
8 7 7 7 8 8 7 7 7 7 6 6 6 6 5 5 5 5 5 5 5 5 4 4 4 3 3 3 3 4 4 3 3 3 3 3 2 2 2 2 2 2
7 7 7 8 8 7 7 7 7 6 6 6 6 5 5 5 5 5 5 5 5 5 4 4 3 3 3 3 3 3 3 4 3 3 3 3 2 2 2 2 2 2
8 8 8 8 8 7 7 6 6 6 6 6 6 6 6 6 6 5 5 5 5 5 4 4 4 4 3 3 3 3 3 3 4 4 3 3 3 2 2 2 2 2
8 8 8 8 8 7 6 6 7 7 6 6 6 6 6 6 6 5 5 5 5 5 5 5 4 4 3 3 3 3 3 3 3 3 3 3 3 2 2 2 1 1
Height
3189 3190 3190 3190 3189 3189 3189 3189 3188 3187 3186 3185 3184 3183 3182 3180 3179 3177 3175 3174 3172 3171 3169 3168 3167 3167 3166 3165 3164 3164 3163 3162 3161 3160 3160 3159 3159 3158 3157 3157 3156 3155
3188 3188 3188 3188 3188 3188 3188 3187 3186 3185 3184 3184 3183 3181 3179 3178 3176 3175 3173 3172 3170 3169 3167 3167 3166 3165 3164 3163 3163 3162 3161 3161 3160 3159 3158 3157 3157 3156 3155 3155 3154 3153
3186 3186 3186 3186 3186 3186 3186 3185 3184 3183 3183 3182 3180 3179 3177 3176 3174 3172 3171 3169 3168 3166 3165 3165 3164 3164 3163 3162 3161 3160 3160 3159 3158 3157 3157 3156 3155 3154 3153 3153 3152 3151
3184 3184 3185 3185 3185 3184 3184 3183 3182 3182 3181 3180 3178 3177 3176 3174 3172 3170 3169 3167 3166 3164 3163 3162 3162 3161 3161 3160 3159 3158 3158 3157 3156 3156 3155 3154 3153 3152 3151 3150 3149 3149
3182 3182 3183 3183 3183 3182 3182 3181 3181 3180 3179 3178 3177 3175 3174 3173 3171 3169 3168 3166 3164 3163 3162 3161 3160 3160 3159 3158 3158 3157 3156 3155 3155 3154 3153 3151 3150 3149 3149 3148 3147 3146
3179 3180 3180 3181 3181 3180 3180 3179 3179 3178 3177 3176 3175 3174 3172 3171 3170 3168 3167 3165 3163 3162 3161 3160 3159 3159 3158 3157 3156 3155 3155 3154 3153 3152 3151 3150 3149 3148 3147 3146 3145 3144
3177 3177 3178 3178 3178 3178 3178 3177 3177 3176 3175 3174 3173 3172 3171 3170 3169 3167 3165 3164 3162 3161 3159 3158 3158 3157 3156 3156 3155 3154 3153 3152 3151 3150 3149 3148 3147 3146 3145 3144 3143 3142
3174 3175 3175 3176 3176 3176 3176 3175 3175 3174 3173 3172 3171 3171 3170 3169 3167 3166 3165 3163 3161 3160 3158 3157 3156 3156 3155 3154 3153 3152 3151 3150 3149 3148 3147 3146 3145 3144 3143 3142 3141 3140
3172 3172 3173 3173 3173 3173 3173 3173 3173 3172 3171 3170 3170 3169 3169 3168 3166 3165 3163 3162 3161 3159 3157 3156 3155 3154 3153 3152 3151 3150 3149 3148 3147 3146 3145 3144 3143 3142 3140 3139 3138 3137
3169 3170 3170 3170 3170 3170 3171 3171 3171 3170 3169 3169 3168 3168 3167 3166 3165 3163 3162 3161 3159 3157 3156 3155 3154 3152 3151 3150 3149 3148 3147 3146 3145 3144 3143 3142 3141 3139 3138 3136 3135 3134
3167 3166 3167 3167 3168 3168 3168 3168 3168 3167 3167 3167 3167 3166 3166 3164 3163 3162 3160 3159 3157 3156 3154 3153 3152 3151 3149 3148 3147 3146 3145 3144 3143 3142 3141 3139 3138 3137 3135 3134 3133 3132
3163 3163 3164 3164 3165 3165 3165 3165 3165 3164 3164 3165 3165 3165 3164 3162 3161 3160 3159 3157 3155 3154 3153 3151 3150 3149 3148 3147 3145 3144 3143 3142 3141 3140 3138 3137 3136 3134 3133 3131 3130 3129
3158 3159 3160 3161 3161 3162 3162 3162 3162 3162 3162 3163 3163 3162 3161 3160 3159 3158 3156 3155 3153 3152 3151 3149 3148 3147 3146 3144 3143 3142 3141 3140 3139 3137 3136 3134 3133 3132 3130 3129 3127 3126
3154 3155 3157 3158 3158 3158 3159 3159 3158 3158 3159 3160 3160 3160 3159 3157 3156 3155 3154 3152 3150 3149 3148 3147 3146 3145 3143 3142 3141 3140 3138 3137 3136 3135 3133 3132 3130 3129 3128 3126 3125 3123
3149 3151 3153 3154 3154 3155 3155 3155 3155 3156 3157 3158 3158 3158 3156 3155 3154 3153 3151 3149 3148 3146 3145 3144 3143 3142 3141 3140 3138 3137 3136 3135 3133 3132 3131 3129 3128 3127 3125 3124 3122 3120
3144 3147 3148 3150 3151 3151 3151 3152 3153 3154 3155 3155 3155 3155 3153 3152 3151 3150 3148 3147 3145 3144 3143 3142 3141 3140 3138 3137 3136 3134 3133 3132 3131 3129 3128 3127 3125 3124 3123 3121 3120 3118
3138 3142 3144 3146 3148 3148 3149 3151 3151 3151 3151 3152 3152 3152 3151 3150 3149 3147 3146 3145 3143 3142 3142 3140 3139 3138 3136 3135 3133 3132 3130 3129 3128 3127 3125 3124 3123 3121 3120 3119 3117 3115
3135 3138 3141 3142 3145 3147 3148 3148 3147 3147 3148 3148 3149 3149 3148 3147 3146 3145 3144 3143 3142 3141 3140 3138 3137 3135 3134 3132 3130 3129 3128 3126 3125 3124 3122 3121 3120 3118 3117 3115 3114 3112
3130 3134 3137 3140 3142 3144 3145 3144 3144 3144 3145 3146 3146 3146 3145 3144 3143 3143 3142 3141 3140 3139 3138 3136 3135 3133 3131 3129 3128 3126 3125 3123 3122 3121 3119 3118 3117 3115 3113 3111 3110 3109
3130 3131 3134 3137 3139 3139 3140 3140 3141 3141 3142 3143 3143 3143 3143 3142 3141 3140 3139 3138 3137 3136 3135 3134 3133 3130 3128 3126 3125 3124 3122 3120 3119 3117 3116 3115 3113 3112 3110 3108 3107 3105
3128 3128 3132 3134 3135 3135 3136 3138 3138 3139 3140 3141 3141 3141 3140 3139 3138 3137 3136 3135 3134 3133 3132 3131 3130 3128 3125 3123 3122 3120 3118 3117 3115 3114 3112 3111 3110 3108 3107 3105 3104 3102
3123 3124 3129 3132 3132 3133 3134 3135 3136 3137 3137 3138 3138 3138 3137 3136 3136 3135 3133 3132 3130 3129 3128 3127 3127 3125 3122 3120 3119 3117 3115 3113 3112 3110 3109 3108 3107 3105 3103 3102 3100 3099
3121 3122 3126 3130 3130 3131 3132 3133 3134 3134 3135 3135 3136 3135 3134 3133 3132 3131 3130 3128 3127 3125 3124 3123 3122 3122 3120 3117 3115 3114 3112 3110 3108 3106 3105 3104 3103 3102 3100 3099 3097 3096
3119 3120 3124 3127 3128 3129 3130 3130 3131 3131 3132 3133 3133 3132 3131 3130 3129 3127 3126 3124 3123 3122 3120 3118 3117 3117 3115 3113 3112 3110 3108 3106 3104 3102 3101 3101 3100 3099 3097 3096 3094 3093
3117 3120 3123 3124 3124 3125 3126 3127 3128 3129 3130 3130 3129 3128 3127 3126 3125 3123 3122 3120 3119 3117 3116 3114 3113 3112 3111 3109 3108 3106 3104 3103 3101 3099 3098 3097 3096 3095 3094 3093 3091 3090
3116 3119 3121 3121 3122 3122 3123 3124 3126 3127 3127 3126 3125 3124 3123 3122 3121 3119 3118 3116 3115 3113 3112 3110 3109 3108 3107 3105 3103 3101 3100 3098 3097 3096 3095 3093 3092 3091 3090 3090 3089 3087
Wind_Speed
12 11 11 10 10 11 13 13 14 17 20 22 23 24 25 25 24 22 20 18 16 14 13 13 13 14 14 14 14 14 14 14 15 16 16 16 16 16 16 17 18 19
14 14 13 13 13 13 14 15 15 17 20 23 24 25 26 26 25 23 22 20 17 14 13 13 13 14 14 14 15 14 14 14 15 15 16 16 16 17 17 18 19 20
17 16 16 15 15 16 16 16 16 17 20 23 26 26 26 26 26 25 23 20 18 15 14 14 14 14 14 14 14 15 15 15 15 15 15 16 17 18 19 19 19 20
19 18 18 18 18 18 18 18 18 18 20 24 26 26 27 27 27 25 23 21 18 16 15 14 14 14 14 14 14 14 15 15 15 15 15 16 18 19 20 20 19 19
22 21 21 20 19 20 20 19 19 19 20 23 26 26 27 28 26 24 23 21 19 16 15 14 14 14 14 14 13 14 14 15 15 15 15 16 18 19 19 19 19 19
25 24 23 22 21 22 21 20 20 19 20 24 26 26 27 27 26 24 22 20 18 17 15 14 13 13 14 13 12 12 13 14 15 15 15 16 18 18 19 19 19 19
27 26 25 24 24 23 22 20 20 19 20 24 25 25 27 27 25 23 21 19 17 16 15 14 14 14 14 13 12 12 13 13 15 16 16 17 17 18 19 19 18 19
29 28 28 27 26 24 23 22 20 19 21 23 24 25 26 26 24 21 19 17 15 14 13 14 14 14 14 14 14 14 15 15 15 16 17 17 17 18 18 19 19 19
31 30 30 29 27 25 24 23 21 20 20 22 23 24 25 24 22 19 17 15 13 13 12 13 14 14 15 15 16 17 17 17 16 16 17 18 18 18 18 19 19 19
32 32 32 31 28 27 26 24 21 20 20 21 22 24 24 22 20 17 15 14 13 12 11 12 13 14 16 17 18 18 18 18 17 17 18 19 19 18 18 19 19 19
33 34 34 32 30 28 27 23 22 20 17 19 21 23 22 20 18 16 15 14 12 11 11 12 13 15 16 17 18 18 18 18 18 19 19 20 20 19 19 19 20 20
33 34 34 33 31 29 27 25 24 21 19 21 22 21 20 19 17 16 15 14 12 11 12 13 14 15 16 17 17 17 18 18 19 20 20 21 20 19 19 20 20 20
31 33 34 34 32 29 28 26 25 24 24 23 19 18 18 17 16 16 16 15 13 13 13 14 14 15 16 17 18 18 19 19 20 21 21 21 21 20 20 20 21 21
30 33 34 33 32 30 28 26 25 26 23 18 15 16 16 15 16 17 17 16 15 15 15 15 16 17 18 18 18 19 20 21 22 22 22 22 22 21 21 21 22 22
32 34 34 34 32 30 28 27 26 25 19 14 15 16 15 16 17 18 18 17 17 17 17 17 18 18 19 19 19 20 21 22 23 23 23 23 23 23 22 22 23 23
33 34 34 34 33 32 31 29 26 20 15 14 16 15 16 17 18 19 19 18 17 18 18 18 19 19 20 21 21 22 22 23 24 24 24 24 24 24 24 23 23 24
32 33 34 34 34 33 30 26 20 15 14 15 16 16 17 18 18 19 19 18 19 19 19 19 20 21 22 22 22 23 24 24 24 24 25 25 25 25 24 23 23 24
29 31 35 34 32 29 25 19 15 14 15 16 16 16 17 18 19 19 19 20 21 21 20 20 20 23 24 23 23 24 25 25 25 25 25 25 25 25 25 24 24 23
26 29 31 27 23 21 17 15 15 15 16 16 16 15 16 18 19 19 20 22 23 23 23 23 23 25 27 27 26 25 26 27 26 26 27 26 26 26 26 25 25 24
23 25 23 17 15 15 13 14 15 15 16 16 14 15 16 18 19 21 23 25 26 27 27 27 28 29 31 32 30 26 26 27 27 27 28 27 27 27 26 25 25 25
22 20 15 14 15 13 12 15 16 16 16 15 15 16 18 19 21 24 26 28 29 30 31 32 33 34 35 36 33 27 25 27 28 28 29 28 27 26 25 25 26 26
20 14 11 15 15 11 12 16 17 16 16 16 18 18 18 19 22 25 27 30 30 31 32 33 35 37 39 41 38 30 26 26 28 29 29 27 25 24 25 26 27 27
15 10 11 15 15 13 14 17 17 17 17 18 19 19 19 21 23 25 27 29 29 29 29 30 31 34 36 38 37 32 28 27 28 28 28 25 22 23 25 27 28 28
11 10 14 16 16 15 15 16 17 18 19 20 20 20 20 22 24 26 27 28 28 27 27 27 28 28 29 32 32 31 31 30 29 28 27 23 21 23 26 29 29 28
10 13 17 19 18 16 15 17 19 20 20 21 21 21 21 22 25 28 28 28 27 27 27 29 27 25 25 28 30 31 32 33 32 30 26 23 24 26 28 30 30 28
13 17 20 21 19 16 16 19 20 20 20 21 22 22 22 23 25 28 28 27 27 28 29 29 28 27 25 27 30 32 33 34 34 32 28 25 27 29 30 30 29 27
Wind_Direction
245 256 269 282 294 300 306 313 322 330 333 336 336 337 340 342 341 337 332 327 321 317 314 312 312 311 310 308 307 307 306 306 305 304 305 305 304 304 303 304 306 307
246 255 264 274 282 289 297 305 314 323 328 332 333 335 339 340 340 337 334 328 322 318 315 311 310 309 307 306 306 307 306 305 304 302 302 302 301 301 301 302 305 306
247 253 260 267 275 283 292 299 307 315 322 328 332 334 337 338 338 336 333 328 322 319 315 312 311 309 306 304 305 306 307 307 305 302 301 300 299 299 301 303 305 305
247 252 257 263 270 279 288 293 300 308 316 325 330 331 333 335 336 335 332 327 323 319 315 313 311 309 307 305 305 308 308 307 305 302 300 298 298 300 302 305 305 304
246 250 255 261 268 276 283 288 295 304 313 323 328 328 329 332 334 333 330 327 323 319 314 311 310 309 307 306 307 308 306 303 301 300 300 299 299 302 303 304 304 304
247 250 254 261 267 274 280 284 292 302 311 321 326 326 326 330 332 332 330 328 324 318 314 311 311 309 306 305 305 304 301 300 299 301 302 301 300 301 301 302 303 304
248 250 254 261 266 272 277 281 290 299 308 319 325 325 325 328 331 330 329 328 323 317 313 312 312 310 308 308 308 307 306 304 303 304 304 302 301 301 301 301 302 303
247 250 254 260 264 268 273 278 287 296 305 317 324 323 324 327 328 327 327 326 321 314 310 308 307 308 310 311 311 310 310 309 306 304 302 300 300 300 300 301 302 302
248 251 254 258 261 265 269 276 284 293 302 314 319 319 322 325 324 324 324 322 317 312 309 305 304 305 308 310 311 311 310 309 307 303 301 300 299 299 299 299 299 300
249 251 255 257 258 262 266 272 282 290 301 311 314 316 319 321 320 320 320 319 316 313 311 309 309 310 312 313 313 312 311 309 307 303 301 299 298 298 297 297 297 298
250 251 254 254 256 261 264 270 279 287 300 310 312 314 316 317 316 315 317 318 319 318 317 318 318 318 318 317 316 313 310 308 305 303 300 298 298 299 297 297 298 298
250 251 252 253 255 258 261 268 274 279 293 302 305 309 312 313 312 312 317 321 323 322 321 322 322 321 320 320 319 315 310 307 304 302 301 300 301 300 298 297 297 297
250 251 251 251 253 254 259 267 271 280 292 296 299 304 308 310 309 312 320 326 329 328 325 322 322 322 323 322 321 318 313 309 306 303 302 302 302 300 297 295 295 297
250 249 249 249 249 252 259 263 270 284 294 295 298 304 307 309 312 318 327 333 336 337 332 328 325 324 324 323 321 318 315 312 308 305 303 302 300 298 297 296 297 299
248 245 245 246 247 250 254 259 271 285 292 296 302 307 310 315 319 326 333 336 338 338 336 332 329 327 323 319 318 315 313 312 310 306 302 300 300 299 299 298 298 299
244 241 240 244 246 248 254 265 278 286 290 299 306 310 314 318 323 329 333 335 333 332 332 329 327 326 323 320 317 313 311 311 309 305 300 298 299 300 300 298 297 298
241 237 237 240 244 248 260 274 284 285 291 301 306 309 312 317 323 328 328 327 323 321 321 318 317 318 318 318 317 314 312 310 307 302 298 297 299 299 299 298 297 298
240 233 233 238 246 253 264 275 279 284 293 299 302 306 310 315 320 322 319 315 313 311 309 306 305 307 308 310 314 315 313 309 304 300 297 297 298 297 297 298 298 299
237 231 233 243 253 255 258 266 274 285 291 294 299 304 307 312 314 312 308 306 304 303 299 295 296 298 297 297 301 307 309 307 302 298 296 296 296 294 294 297 299 300
236 231 235 244 247 245 252 264 273 281 285 289 295 297 299 304 304 301 300 299 298 297 294 290 289 289 288 289 293 297 302 303 300 295 294 294 294 293 292 294 298 300
236 235 242 243 234 237 258 266 269 275 280 284 286 286 290 297 299 298 297 295 295 294 291 289 288 285 283 286 290 291 292 297 297 293 292 294 294 292 291 293 297 299
240 244 247 240 231 233 253 261 264 269 272 276 278 282 288 295 297 295 292 290 291 292 292 293 293 290 287 287 289 286 282 288 292 290 290 294 296 295 294 295 297 298
243 241 223 224 227 234 247 255 258 261 266 272 277 281 287 291 293 291 288 288 290 292 294 295 295 294 289 286 286 284 280 282 285 287 291 295 298 299 298 296 296 297
244 235 216 216 227 237 246 251 255 259 266 270 274 278 282 285 288 288 287 289 291 291 290 288 287 286 282 280 281 283 283 283 283 285 290 294 295 297 297 296 295 295
224 229 226 229 233 238 246 251 255 261 266 268 272 277 279 282 285 286 286 287 288 289 286 283 282 281 280 282 282 281 281 283 283 283 286 290 293 293 293 293 292 292
210 225 233 237 237 237 244 251 256 262 268 272 278 282 283 282 284 286 286 284 285 287 287 285 284 284 285 288 286 279 275 277 281 281 282 286 288 288 290 290 289 290